[[{"header":{"parameterUnit":"m.s-1","parameterCategory":1,"la1":30.2991,"la2":30.254,"lo1":-89.0895,"lo2":-89.0444,"dy":0.0017,"dx":0.0017,"nx":28,"ny":28,"refTime":"2024-08-20T03:00:00:Z","depth":0,"parameterNumber":2,"parameterNumberName":"U-component_of_WINDS"},"data":[0,0,0,0,0,0,0,0,0,0,0,0,0,0,0,0,0,0,0,0,0,0,0,0,0,0,0,0,0,0,0,0,0,0,0,0,0,0,0,0,0,0,0,0,0,0,0,0,0,0,0,0,0,0,0,0,0,0,1.0848,1.0845,0,1.0603,1.06,1.0597,1.0415,1.0414,1.0412,1.0411,1.0165,1.016,1.0155,0,0,0,0,0,0,0,0,0,0,0,0,0,1.1165,1.116,1.0848,1.0845,1.0842,1.0603,1.06,1.0596,1.0416,1.0414,1.0412,1.041,1.0167,1.0161,1.0155,0,0,0,0,0,0,0,0,0,0,0,0,0,1.0985,1.1159,1.0848,1.0723,1.0709,1.0604,1.06,1.0595,1.0416,1.0414,1.0411,1.0409,1.0169,1.0161,1.0154,1.0156,0,0,1.0131,1.0128,0,0,0,0,0,0,0,0,1.0995,1.0973,1.0744,1.0731,1.0716,1.0537,1.0621,1.0448,1.0417,1.0528,1.0411,1.0408,1.0291,1.0273,1.0233,1.0144,1.0134,1.013,1.0126,1.0122,1.012,0,0,0,0,0,0,0,1.1008,1.0983,1.0751,1.0741,1.0724,1.0681,1.0652,1.0588,1.0426,1.0518,1.0504,1.0477,1.0283,1.0241,1.0226,1.013,1.013,1.0124,1.0119,1.0116,1.0032,1.0035,0,0,0,0,0,0,1.1039,1.0995,1.0759,1.0744,1.0852,1.0677,1.0645,1.0597,1.0426,1.0398,1.0479,1.047,1.0255,1.0235,1.0217,1.0208,1.0122,1.0115,1.0111,1.003,1.0033,1.0035,0,0,0,0,0,0,1.1047,1.102,1.0769,1.0865,1.083,1.0674,1.0621,1.0593,1.0551,1.0397,1.0368,1.0466,1.0252,1.0227,1.0172,1.0197,1.0112,1.0105,1.0027,1.0031,1.0034,1.0192,0,0,0,0,0,0,1.1057,1.1024,1.1021,1.0866,1.0825,1.0727,1.0623,1.059,1.0538,1.0522,1.0376,1.035,1.0248,1.0184,1.0165,1.0185,1.0099,1.0024,1.0029,1.0033,1.0184,1.0201,1.0215,0,0,0,0,0,1.1069,1.1076,1.1022,1.0995,1.0819,1.0729,1.0705,1.0587,1.054,1.0538,1.0439,1.0355,1.0198,1.018,1.0157,1.0176,1.0022,1.0028,1.0033,1.0177,1.0197,1.0215,0,0,0,0,0,0,1.124,1.1054,1.0992,1.0949,1.0856,1.0698,1.0691,1.0612,1.0531,1.0521,1.0378,1.0347,1.0308,1.0235,1.022,1.0169,1.01,1.01,1.0218,1.0235,1.0251,1.0269,1.0093,0,0,0,0,0,1.1272,1.1213,1.1054,1.1032,1.0988,1.0849,1.0805,1.0721,1.062,1.058,1.0477,1.0384,1.0314,1.027,1.0197,1.0173,1.014,1.0174,1.019,1.0203,1.0206,1.019,1.0204,1.0053,1.0052,1.0052,0,0,1.134,1.123,1.1202,1.1064,1.0982,1.0926,1.0817,1.0761,1.0719,1.0572,1.0514,1.0436,1.0322,1.0284,1.0261,1.0222,1.024,1.021,1.0221,1.0216,1.0197,1.0211,1.0224,1.0056,1.0055,1.0055,0,0,1.1433,1.1344,1.1316,1.1236,1.1113,1.102,1.1014,1.0868,1.0811,1.0749,1.0639,1.0587,1.0468,1.0392,1.0339,1.0406,1.0326,1.0386,1.0467,1.0453,1.0465,1.0475,1.0501,1.0511,1.0389,1.0389,1.0389,0,1.1533,1.1441,1.1313,1.1264,1.1208,1.1071,1.1043,1.0973,1.0833,1.0799,1.0756,1.0605,1.0519,1.0462,1.0478,1.0438,1.0429,1.0402,1.0473,1.0482,1.0489,1.0512,1.0522,1.0397,1.0396,1.0396,1.0395,0,1.1571,1.151,1.1503,1.137,1.1313,1.1275,1.1143,1.1101,1.1023,1.0935,1.0876,1.0768,1.0671,1.0651,1.0575,1.0583,1.0563,1.05,1.0427,1.0514,1.0534,1.0541,1.0409,1.0406,1.0404,1.0402,0,0,1.1765,1.1562,1.1562,1.1501,1.1356,1.1307,1.1265,1.1168,1.1136,1.1045,1.1007,1.091,1.085,1.079,1.0704,1.0691,1.0754,1.0628,1.0624,1.0657,1.076,1.081,1.0822,1.07,1.0701,1.0702,1.077,0,1.1837,1.1751,1.1635,1.1589,1.1532,1.1403,1.1366,1.1274,1.1192,1.1133,1.1042,1.0977,1.0902,1.0864,1.0846,1.0751,1.0773,1.0744,1.0666,1.0665,1.07,1.0832,1.0884,1.0954,1.0776,1.0777,1.0778,0,1.191,1.1825,1.1774,1.1634,1.1606,1.1575,1.1479,1.1423,1.1318,1.1259,1.1192,1.1099,1.105,1.0984,1.0916,1.0899,1.086,1.0809,1.0809,1.0798,1.0728,1.0827,1.0972,1.0984,1.0789,1.0788,1.0787,0,1.206,1.1932,1.1885,1.1837,1.1673,1.1654,1.1586,1.1477,1.1428,1.1344,1.1311,1.1224,1.1176,1.1112,1.0999,1.0961,1.0944,1.0869,1.0896,1.0899,1.0899,1.0901,1.1043,1.0872,1.0872,1.0872,1.0872,0,1.2153,1.2128,1.195,1.1922,1.1889,1.1757,1.1729,1.1649,1.1554,1.151,1.1392,1.1353,1.1205,1.115,1.1061,1.102,1.0999,1.0952,1.0929,1.0963,1.097,1.0937,1.093,1.0875,1.0874,1.0874,1.0873,0,1.2315,1.2195,1.2135,1.1985,1.1947,1.1931,1.1803,1.1771,1.1682,1.1627,1.1607,1.1468,1.1396,1.1277,1.1171,1.1111,1.1088,1.1048,1.1123,1.1109,1.1144,1.1144,1.1272,1.1283,1.1105,1.1107,1.1108,0,1.2384,1.236,1.2208,1.2169,1.2104,1.2043,1.1991,1.186,1.1812,1.1691,1.1675,1.1594,1.1523,1.1415,1.1306,1.1225,1.1184,1.1234,1.1171,1.1207,1.1187,1.1191,1.1189,1.125,1.1252,1.1254,1.1256,0,1.2519,1.2461,1.239,1.23,1.2241,1.2164,1.2081,1.2056,1.1907,1.186,1.1784,1.1729,1.1621,1.1543,1.1447,1.1378,1.1294,1.1277,1.1279,1.1315,1.136,1.1338,1.1165,1.1274,1.1273,1.1271,1.127,1.127,1.2637,1.2611,1.25,1.2426,1.235,1.2275,1.2239,1.2145,1.2079,1.198,1.1907,1.1838,1.1735,1.1597,1.1533,1.1479,1.144,1.1443,1.1444,1.1448,1.1462,1.1368,1.1461,1.146,1.1459,1.1459,1.1458,0,1.2768,1.269,1.2623,1.251,1.2453,1.2376,1.2281,1.2239,1.2178,1.2089,1.202,1.1936,1.186,1.1745,1.1661,1.164,1.1599,1.1623,1.1624,1.161,1.15,1.1507,1.1657,1.1657,1.1657,1.1657,1.1657,1.1657,1.2829,1.2782,1.2711,1.2626,1.2548,1.2479,1.2431,1.2363,1.229,1.2201,1.2137,1.2062,1.1962,1.187,1.1799,1.1767,1.1743,1.1779,1.1736,1.1636,1.1617,1.16,1.1606,1.1774,1.1774,1.185,1.1851,1.1851]},{"header":{"parameterUnit":"m.s-1","parameterCategory":1,"la1":30.2991,"la2":30.254,"lo1":-89.0895,"lo2":-89.0444,"dy":0.0017,"dx":0.0017,"nx":28,"ny":28,"refTime":"2024-08-20T03:00:00:Z","depth":0,"parameterNumber":3,"parameterNumberName":"V-component_of_WINDS"},"data":[0,0,0,0,0,0,0,0,0,0,0,0,0,0,0,0,0,0,0,0,0,0,0,0,0,0,0,0,0,0,0,0,0,0,0,0,0,0,0,0,0,0,0,0,0,0,0,0,0,0,0,0,0,0,0,0,0,0,-2.8744,-2.8743,0,-2.8703,-2.8702,-2.8702,-2.866,-2.866,-2.8659,-2.8659,-2.8617,-2.8616,-2.8616,0,0,0,0,0,0,0,0,0,0,0,0,0,-2.8787,-2.8787,-2.8744,-2.8743,-2.8743,-2.8703,-2.8702,-2.8702,-2.866,-2.866,-2.8659,-2.8658,-2.8617,-2.8616,-2.8615,0,0,0,0,0,0,0,0,0,0,0,0,0,-2.8759,-2.8786,-2.8744,-2.8717,-2.8714,-2.8703,-2.8702,-2.8702,-2.866,-2.866,-2.8659,-2.8658,-2.8617,-2.8616,-2.8615,-2.8627,0,0,-2.8613,-2.8612,0,0,0,0,0,0,0,0,-2.8761,-2.8758,-2.8722,-2.8719,-2.8716,-2.8686,-2.8702,-2.8676,-2.8661,-2.8681,-2.8659,-2.8658,-2.864,-2.8638,-2.8632,-2.8625,-2.8623,-2.8613,-2.8612,-2.8612,-2.8611,0,0,0,0,0,0,0,-2.8763,-2.8759,-2.8727,-2.8721,-2.8718,-2.8708,-2.8703,-2.8697,-2.8666,-2.8679,-2.8676,-2.8672,-2.8639,-2.8633,-2.863,-2.8622,-2.8613,-2.8612,-2.8611,-2.8611,-2.8623,-2.8624,0,0,0,0,0,0,-2.8769,-2.8761,-2.8729,-2.8726,-2.8737,-2.8708,-2.8702,-2.8696,-2.8666,-2.866,-2.8673,-2.867,-2.8635,-2.8631,-2.8629,-2.864,-2.8612,-2.8611,-2.861,-2.8622,-2.8624,-2.8624,0,0,0,0,0,0,-2.877,-2.8766,-2.873,-2.8743,-2.8738,-2.8708,-2.8702,-2.8696,-2.869,-2.8661,-2.8655,-2.8672,-2.8634,-2.863,-2.8628,-2.8638,-2.861,-2.861,-2.8621,-2.8623,-2.8624,-2.8662,0,0,0,0,0,0,-2.8771,-2.8767,-2.8771,-2.8743,-2.8737,-2.873,-2.8702,-2.8696,-2.8688,-2.8685,-2.8659,-2.8654,-2.8633,-2.8629,-2.8627,-2.8636,-2.8609,-2.862,-2.8622,-2.8624,-2.866,-2.8664,-2.8669,0,0,0,0,0,-2.8773,-2.8783,-2.8771,-2.8767,-2.8741,-2.873,-2.8727,-2.8702,-2.8689,-2.8693,-2.8675,-2.8655,-2.8638,-2.8629,-2.8626,-2.8635,-2.862,-2.8622,-2.8623,-2.8658,-2.8664,-2.8668,0,0,0,0,0,0,-2.8812,-2.8779,-2.8765,-2.8766,-2.8752,-2.8723,-2.8727,-2.8709,-2.8698,-2.8695,-2.8665,-2.866,-2.8661,-2.8648,-2.864,-2.8645,-2.8626,-2.8627,-2.8653,-2.8658,-2.8663,-2.8665,-2.8608,0,0,0,0,0,-2.8821,-2.8815,-2.8786,-2.879,-2.8783,-2.8757,-2.8751,-2.8734,-2.8717,-2.8711,-2.8692,-2.8677,-2.8668,-2.8663,-2.8653,-2.8659,-2.8652,-2.8663,-2.8668,-2.8672,-2.8673,-2.8675,-2.8679,-2.8631,-2.8631,-2.8631,0,0,-2.8838,-2.882,-2.8818,-2.8798,-2.8784,-2.8778,-2.8752,-2.8747,-2.8743,-2.871,-2.8706,-2.8693,-2.8674,-2.8675,-2.8675,-2.8665,-2.8685,-2.8674,-2.8677,-2.8676,-2.8677,-2.8682,-2.8686,-2.8632,-2.8632,-2.8632,0,0,-2.8868,-2.8853,-2.8855,-2.8842,-2.8822,-2.8805,-2.8805,-2.878,-2.8769,-2.8766,-2.8741,-2.8736,-2.8722,-2.8709,-2.8701,-2.8728,-2.8709,-2.8726,-2.8748,-2.875,-2.8754,-2.8757,-2.8766,-2.877,-2.8727,-2.8727,-2.8727,0,-2.8892,-2.8883,-2.8858,-2.8855,-2.8847,-2.8818,-2.8819,-2.8808,-2.8786,-2.8781,-2.877,-2.8752,-2.8737,-2.8736,-2.8742,-2.8737,-2.8737,-2.8727,-2.8756,-2.8759,-2.8761,-2.8769,-2.8773,-2.8729,-2.8729,-2.8729,-2.8729,0,-2.8914,-2.8908,-2.8912,-2.8891,-2.8884,-2.8883,-2.8858,-2.8854,-2.8838,-2.8822,-2.8819,-2.8801,-2.8787,-2.8786,-2.877,-2.8782,-2.8776,-2.8761,-2.8741,-2.8768,-2.8775,-2.8778,-2.8732,-2.8732,-2.8731,-2.873,0,0,-2.8964,-2.8931,-2.8933,-2.8923,-2.89,-2.8895,-2.8894,-2.888,-2.8877,-2.8864,-2.8861,-2.8851,-2.8837,-2.8827,-2.8811,-2.8813,-2.8835,-2.8797,-2.8796,-2.8804,-2.8847,-2.8857,-2.8861,-2.8823,-2.8824,-2.8824,-2.8848,0,-2.8988,-2.8983,-2.8962,-2.8963,-2.8957,-2.8931,-2.893,-2.8915,-2.8901,-2.8894,-2.8879,-2.8871,-2.8853,-2.8848,-2.8849,-2.8832,-2.8843,-2.883,-2.882,-2.882,-2.8824,-2.8865,-2.8876,-2.8899,-2.8851,-2.8851,-2.8851,0,-2.9015,-2.9004,-2.9005,-2.8982,-2.8979,-2.8978,-2.8964,-2.8959,-2.8943,-2.8932,-2.8923,-2.8904,-2.8901,-2.8884,-2.888,-2.8872,-2.8867,-2.8859,-2.8859,-2.8856,-2.8836,-2.8862,-2.8906,-2.8909,-2.8856,-2.8855,-2.8855,0,-2.9051,-2.9036,-2.9034,-2.9027,-2.9001,-2.9001,-2.899,-2.8973,-2.8967,-2.8956,-2.8951,-2.894,-2.8934,-2.8926,-2.8905,-2.8894,-2.8903,-2.8884,-2.8894,-2.8894,-2.8895,-2.8895,-2.8938,-2.8895,-2.8895,-2.8895,-2.8895,0,-2.9079,-2.9081,-2.905,-2.9049,-2.905,-2.9026,-2.9027,-2.9014,-2.9,-2.8996,-2.8973,-2.897,-2.8944,-2.8938,-2.8922,-2.8921,-2.8918,-2.891,-2.8905,-2.8911,-2.8912,-2.8906,-2.8903,-2.8896,-2.8896,-2.8895,-2.8895,0,-2.9118,-2.9097,-2.9094,-2.907,-2.9064,-2.9066,-2.9046,-2.9044,-2.9029,-2.9025,-2.9022,-2.8999,-2.8991,-2.897,-2.8956,-2.8946,-2.8949,-2.8941,-2.8954,-2.8951,-2.8961,-2.896,-2.9001,-2.9005,-2.8961,-2.8961,-2.8962,0,-2.9137,-2.9137,-2.9114,-2.9109,-2.91,-2.9093,-2.9087,-2.9064,-2.9058,-2.9041,-2.9041,-2.9032,-2.9022,-2.9011,-2.8993,-2.8983,-2.8974,-2.8989,-2.8973,-2.8978,-2.8973,-2.8973,-2.8973,-2.8992,-2.8993,-2.8993,-2.8994,0,-2.9172,-2.9162,-2.9153,-2.9142,-2.9135,-2.9124,-2.9113,-2.9111,-2.9085,-2.908,-2.9072,-2.9065,-2.9052,-2.9043,-2.903,-2.9019,-2.9002,-2.9,-2.9001,-2.9006,-2.9013,-2.9008,-2.8962,-2.8998,-2.8998,-2.8998,-2.8997,-2.8997,-2.92,-2.9199,-2.9183,-2.9174,-2.9163,-2.9153,-2.9151,-2.9136,-2.9128,-2.9116,-2.9103,-2.9096,-2.9081,-2.9062,-2.9053,-2.9048,-2.9039,-2.9041,-2.9042,-2.9042,-2.9045,-2.9016,-2.9046,-2.9046,-2.9045,-2.9045,-2.9045,0,-2.9233,-2.9221,-2.9214,-2.9199,-2.9192,-2.9178,-2.9165,-2.916,-2.9154,-2.9142,-2.9134,-2.9125,-2.9116,-2.9098,-2.9088,-2.9087,-2.9079,-2.9085,-2.9084,-2.9082,-2.9054,-2.9053,-2.9092,-2.9092,-2.9092,-2.9092,-2.9092,-2.9092,-2.9249,-2.9247,-2.9235,-2.9228,-2.9216,-2.9209,-2.9203,-2.9194,-2.9184,-2.9175,-2.9167,-2.9156,-2.9141,-2.913,-2.9122,-2.9117,-2.9114,-2.9122,-2.9114,-2.9088,-2.9084,-2.9079,-2.9078,-2.9122,-2.9122,-2.9143,-2.9143,-2.9143]}]]